User: anonymous   Login
Location: Adrasan
(36.3319°N, 30.4314°E)
Time: 21:40:23
(UTC+00:00)
Language:

DELTA 2 R/B (1) - Orbit

View from above orbital plane
View from above orbital plane
View from above satellite
View from above satellite

Ground track
Ground track

The orbit data is extracted from the following two-line orbital elements,

1 27665U 03005C   24103.89940174  .00000213  00000-0  11663-3 0  9992
2 27665  39.5776  20.1213 0009881 265.7831 173.2930 14.28965836107210
Epoch (UTC): 12 April 2024 21:35:08
Eccentricity: 0.0009881
inclination: 39.5776°
perigee height: 788 km
apogee height: 802 km
right ascension of ascending node: 20.1213°
argument of perigee: 265.7831°
revolutions per day: 14.28965836
mean anomaly at epoch: 173.2930°
orbit number at epoch: 10721

The dashed part of the orbit path shows where the satellite is in the earth's shadow,  

DLR